Weather History for Luverne, MN

Change the Weather History Date:

Monday, April 22, 2013

  Actual Average (KFSD) Record (KFSD)
Temperature  
Mean Temperature 32 °F 49 °F  
Max Temperature 35 °F 62 °F 93 °F (1960)
Min Temperature 28 °F 37 °F 23 °F (1956)
Degree Days  
Heating Degree Days 34 16  
Month to date heating degree days 449  
Since 1 July heating degree days 7294  
Cooling Degree Days 0 0  
Month to date cooling degree days 0  
Year to date cooling degree days 0  
Moisture  
Dew Point 29 °F    
Average Humidity 89    
Maximum Humidity 93    
Minimum Humidity 80    
Precipitation  
Precipitation 0.06 in 0.10 in 3.72 in (2001)
Month to date precipitation 2.17  
Year to date precipitation 5.09  
Snow  
Snow 0.00 in 0.10 in 4.70 in (1988)
Month to date snowfall 3.9  
Since 1 July snowfall 43.8  
Snow Depth -    
Sea Level Pressure  
Sea Level Pressure 30.16 in    
Wind  
Wind Speed 12 mph (NNE)    
Max Wind Speed 21 mph    
Max Gust Speed 32 mph    
Visibility 6 miles    
Events Rain , Snow    
T = Trace of Precipitation, MM = Missing Value Source: NWS Daily Summary

Daily Weather History Graph

Daily Weather History Graph

Search for Another Location

Airport:

Trip Planner

Search our weather history database for the weather conditions in past years. The results will help you decide how hot, cold, wet, or windy it might be!

Date:

Astronomy

Apr. 22, 2013 Rise Set
Actual Time 6:30 AM CDT 8:16 PM CDT
Civil Twilight 5:59 AM CDT 8:47 PM CDT
Nautical Twilight 5:22 AM CDT 9:24 PM CDT
Astronomical Twilight 4:42 AM CDT 10:05 PM CDT
Moon 5:01 PM CDT (4/22) 4:31 AM CDT (4/22)
Length of Visible Light 14h 47m
Length of Day
13h 46m
Waxing Gibbous, 88% of the Moon is Illuminated
Apr 22
Waxing Gibbous
Apr 25
Full
May 2
Last Quarter
May 9
New
May 17
First Quarter

Hourly Weather History & Observations

Time (CDT) Temp. Windchill Dew Point Humidity Pressure Visibility Wind Dir Wind Speed Gust Speed Precip Events Conditions
12:17 AM 35.6 °F 28.0 °F 32.0 °F 87% 30.17 in 10.0 mi NNE 10.4 mph - N/A   Overcast
12:36 AM 35.6 °F 28.6 °F 32.0 °F 87% 30.17 in 10.0 mi NNE 9.2 mph - N/A   Overcast
12:57 AM 35.6 °F 29.2 °F 32.0 °F 87% 30.17 in 10.0 mi NE 8.1 mph - N/A   Overcast
1:17 AM 33.8 °F 29.6 °F 32.0 °F 93% 30.17 in 10.0 mi ENE 4.6 mph - N/A   Mostly Cloudy
1:36 AM 33.8 °F 30.8 °F 32.0 °F 93% 30.18 in 10.0 mi ENE 3.5 mph - N/A   Overcast
1:57 AM 35.6 °F 32.8 °F 32.0 °F 87% 30.19 in 10.0 mi ENE 3.5 mph - N/A   Overcast
2:16 AM 33.8 °F 27.0 °F 32.0 °F 93% 30.17 in 10.0 mi NE 8.1 mph - N/A   Mostly Cloudy
2:37 AM 33.8 °F 27.7 °F 32.0 °F 93% 30.17 in 10.0 mi NNE 6.9 mph - N/A   Mostly Cloudy
2:56 AM 33.8 °F 27.7 °F 32.0 °F 93% 30.17 in 10.0 mi ENE 6.9 mph - N/A   Overcast
3:16 AM 33.8 °F 27.7 °F 30.2 °F 87% 30.16 in 10.0 mi NE 6.9 mph - N/A   Mostly Cloudy
3:37 AM 33.8 °F 27.7 °F 30.2 °F 87% 30.15 in 10.0 mi ENE 6.9 mph - N/A   Scattered Clouds
3:56 AM 33.8 °F 27.7 °F 30.2 °F 87% 30.15 in 10.0 mi NNE 6.9 mph - N/A   Mostly Cloudy
4:17 AM 32.0 °F 24.2 °F 30.2 °F 93% 30.15 in 10.0 mi NE 9.2 mph - N/A   Overcast
4:36 AM 32.0 °F 24.2 °F 30.2 °F 93% 30.14 in 10.0 mi NE 9.2 mph - N/A   Overcast
4:57 AM 32.0 °F 24.2 °F 30.2 °F 93% 30.15 in 10.0 mi NNE 9.2 mph - N/A   Mostly Cloudy
5:16 AM 32.0 °F 23.0 °F 30.2 °F 93% 30.14 in 10.0 mi NE 11.5 mph - N/A   Overcast
5:36 AM 32.0 °F 23.6 °F 30.2 °F 93% 30.15 in 10.0 mi NNE 10.4 mph - N/A   Overcast
5:57 AM 32.0 °F 21.6 °F 30.2 °F 93% 30.14 in 10.0 mi NNE 15.0 mph 21.9 mph N/A   Overcast
6:16 AM 32.0 °F 22.1 °F 30.2 °F 93% 30.14 in 10.0 mi NE 13.8 mph 17.3 mph N/A   Overcast
6:36 AM 32.0 °F 20.5 °F 28.4 °F 87% 30.15 in 10.0 mi NE 18.4 mph - N/A   Overcast
6:57 AM 32.0 °F 21.2 °F 28.4 °F 87% 30.14 in 10.0 mi NE 16.1 mph 20.7 mph N/A   Overcast
7:16 AM 32.0 °F 20.5 °F 28.4 °F 87% 30.14 in 10.0 mi NE 18.4 mph 27.6 mph N/A   Overcast
7:36 AM 32.0 °F 20.5 °F 28.4 °F 87% 30.13 in 10.0 mi NE 18.4 mph 25.3 mph N/A   Overcast
7:57 AM 32.0 °F 21.2 °F 28.4 °F 87% 30.13 in 10.0 mi ENE 16.1 mph 26.5 mph N/A   Overcast
8:16 AM 32.0 °F 22.5 °F 28.4 °F 87% 30.15 in 10.0 mi ENE 12.7 mph 24.2 mph N/A   Overcast
8:36 AM 32.0 °F 23.0 °F 28.4 °F 87% 30.15 in 10.0 mi NE 11.5 mph - N/A   Overcast
8:57 AM 32.0 °F 20.5 °F 28.4 °F 87% 30.15 in 10.0 mi NE 18.4 mph - N/A   Overcast
9:17 AM 32.0 °F 21.6 °F 30.2 °F 93% 30.16 in 10.0 mi NE 15.0 mph 20.7 mph N/A Rain Light Rain
9:37 AM 32.0 °F 21.6 °F 28.4 °F 87% 30.16 in 5.0 mi NE 15.0 mph 23.0 mph N/A Snow Light Snow
9:56 AM 32.0 °F 20.1 °F 30.2 °F 93% 30.13 in 4.0 mi NE 19.6 mph 32.2 mph N/A Snow Light Snow
10:17 AM 32.0 °F 23.0 °F 30.2 °F 93% 30.14 in 5.0 mi NNE 11.5 mph 23.0 mph N/A Snow Light Snow
10:37 AM 32.0 °F 24.8 °F 30.2 °F 93% 30.18 in 1.5 mi NNE 8.1 mph - 0.02 in Snow Snow
10:56 AM 32.0 °F 22.5 °F 30.2 °F 93% 30.15 in 1.8 mi NE 12.7 mph 20.7 mph 0.01 in Snow Light Snow
11:17 AM 32.0 °F 21.6 °F 30.2 °F 93% 30.15 in 0.5 mi NE 15.0 mph 18.4 mph 0.01 in Snow Snow
11:37 AM 32.0 °F 21.6 °F 30.2 °F 93% 30.14 in 0.2 mi NNE 15.0 mph - 0.01 in Snow Snow
11:56 AM 32.0 °F 22.1 °F 30.2 °F 93% 30.15 in 0.2 mi NNE 13.8 mph 18.4 mph N/A Snow Snow
12:17 PM 32.0 °F 22.5 °F 30.2 °F 93% 30.14 in 0.8 mi NNE 12.7 mph 19.6 mph 0.02 in Snow Light Snow
12:37 PM 32.0 °F 22.1 °F 30.2 °F 93% 30.14 in 2.5 mi NNE 13.8 mph 21.9 mph 0.02 in Snow Light Snow
12:56 PM 32.0 °F 22.1 °F 30.2 °F 93% 30.14 in 2.5 mi NNE 13.8 mph 20.7 mph N/A Rain Light Rain
1:17 PM 32.0 °F 21.6 °F 30.2 °F 93% 30.13 in 0.8 mi North 15.0 mph 21.9 mph N/A Snow Light Snow
1:37 PM 32.0 °F 21.2 °F 30.2 °F 93% 30.12 in 2.5 mi North 16.1 mph 24.2 mph N/A Snow Light Snow
1:56 PM 32.0 °F 21.6 °F 28.4 °F 87% 30.12 in 3.0 mi NNE 15.0 mph 21.9 mph N/A   Overcast
2:17 PM 32.0 °F 20.5 °F 28.4 °F 87% 30.11 in 4.0 mi NNE 18.4 mph 25.3 mph N/A   Overcast
2:37 PM 32.0 °F 20.8 °F 28.4 °F 87% 30.11 in 5.0 mi NNE 17.3 mph 26.5 mph N/A   Overcast
2:56 PM 32.0 °F 20.5 °F 28.4 °F 87% 30.11 in 5.0 mi North 18.4 mph 27.6 mph N/A   Overcast
3:17 PM 32.0 °F 20.1 °F 28.4 °F 87% 30.12 in 3.0 mi North 19.6 mph 28.8 mph N/A Snow Light Snow
3:36 PM 32.0 °F 20.5 °F 30.2 °F 93% 30.12 in 2.5 mi North 18.4 mph 24.2 mph N/A Rain Light Rain
3:56 PM 32.0 °F 21.2 °F 30.2 °F 93% 30.14 in 1.2 mi North 16.1 mph 27.6 mph N/A Snow Light Snow
4:17 PM 32.0 °F 20.5 °F 30.2 °F 93% 30.12 in 0.5 mi NNE 18.4 mph 26.5 mph N/A Snow Snow
4:36 PM 32.0 °F 20.8 °F 30.2 °F 93% 30.13 in 0.5 mi NNE 17.3 mph 26.5 mph N/A Snow Snow
4:56 PM 32.0 °F 20.5 °F 30.2 °F 93% 30.14 in 0.2 mi NNE 18.4 mph 25.3 mph N/A Snow Heavy Snow
5:17 PM 32.0 °F 21.6 °F 30.2 °F 93% 30.14 in 0.2 mi NNE 15.0 mph 21.9 mph 0.01 in Snow Snow
5:36 PM 32.0 °F 21.2 °F 30.2 °F 93% 30.16 in 0.2 mi NNE 16.1 mph 26.5 mph 0.01 in Snow Snow
5:56 PM 32.0 °F 21.6 °F 30.2 °F 93% 30.16 in 0.2 mi North 15.0 mph 23.0 mph N/A Snow Snow
6:17 PM 32.0 °F 22.1 °F 28.4 °F 87% 30.17 in 0.5 mi North 13.8 mph 27.6 mph N/A Snow Snow
6:36 PM 32.0 °F 20.8 °F 28.4 °F 87% 30.16 in 0.8 mi North 17.3 mph 25.3 mph N/A Snow Light Snow
6:56 PM 32.0 °F 19.8 °F 28.4 °F 87% 30.17 in 1.0 mi North 20.7 mph 29.9 mph N/A Snow Light Snow
7:17 PM 32.0 °F 20.5 °F 28.4 °F 87% 30.17 in 2.0 mi North 18.4 mph 27.6 mph N/A Snow Light Snow
7:36 PM 32.0 °F 20.5 °F 28.4 °F 87% 30.16 in 4.0 mi North 18.4 mph 31.1 mph N/A   Mostly Cloudy
7:56 PM 32.0 °F 19.8 °F 28.4 °F 87% 30.18 in 3.0 mi North 20.7 mph 31.1 mph N/A Snow Light Snow
8:17 PM 32.0 °F 19.8 °F 26.6 °F 80% 30.20 in 5.0 mi North 20.7 mph 32.2 mph N/A   Haze
8:36 PM 32.0 °F 20.5 °F 26.6 °F 80% 30.21 in 7.0 mi North 18.4 mph 29.9 mph N/A   Overcast
8:56 PM 30.2 °F 17.8 °F 26.6 °F 86% 30.21 in 7.0 mi North 19.6 mph 29.9 mph N/A   Overcast
9:17 PM 30.2 °F 17.8 °F 26.6 °F 86% 30.22 in 7.0 mi North 19.6 mph 26.5 mph N/A   Overcast
9:37 PM 30.2 °F 17.8 °F 26.6 °F 86% 30.23 in 10.0 mi North 19.6 mph 26.5 mph N/A   Overcast
9:56 PM 30.2 °F 18.5 °F 24.8 °F 80% 30.24 in 10.0 mi North 17.3 mph 28.8 mph N/A   Overcast
10:17 PM 30.2 °F 18.5 °F 24.8 °F 80% 30.24 in 10.0 mi North 17.3 mph 23.0 mph N/A   Mostly Cloudy
10:36 PM 30.2 °F 18.1 °F 24.8 °F 80% 30.24 in 10.0 mi North 18.4 mph 25.3 mph N/A   Mostly Cloudy
10:57 PM 30.2 °F 17.8 °F 24.8 °F 80% 30.26 in 10.0 mi North 19.6 mph 25.3 mph N/A   Overcast
11:16 PM 30.2 °F 18.9 °F 24.8 °F 80% 30.23 in 10.0 mi North 16.1 mph 27.6 mph N/A   Overcast
11:37 PM 28.4 °F 15.4 °F 23.0 °F 80% 30.24 in 10.0 mi North 19.6 mph 25.3 mph N/A   Overcast
11:57 PM 28.4 °F 15.4 °F 23.0 °F 80% 30.25 in 10.0 mi North 19.6 mph 25.3 mph N/A   Mostly Cloudy